Meriden, CT

10:26 PM EST on February 21, 2018 (GMT -0500)
Meriden Markham Municipal

Weather History for KMMK - April, 2013

Change the Weather History Date:

Sunday, April 7, 2013

  Actual Average (KOXC) Record (KOXC)
Temperature  
Mean Temperature 40 °F -  
Max Temperature 54 °F 50 °F 71 °F (1997)
Min Temperature 28 °F 33 °F 17 °F (2002)
Degree Days  
Heating Degree Days 24    
Moisture  
Dew Point 32 °F    
Average Humidity 67    
Maximum Humidity 86    
Minimum Humidity 46    
Precipitation  
Precipitation 0.00 in - - ()
Sea Level Pressure  
Sea Level Pressure 30.18 in    
Wind  
Wind Speed 7 mph (South)    
Max Wind Speed 23 mph    
Max Gust Speed 32 mph    
Visibility 10 miles    
Events Rain    
Averages and records for this station are not official NWS values.
T = Trace of Precipitation, MM = Missing Value Source: NWS Daily Summary

Daily Weather History Graph

Daily Weather History Graph

Search for Another Location

Airport or City:

Trip Planner

Search our weather history database for the weather conditions in past years. The results will help you decide how hot, cold, wet, or windy it might be!

Date:

Astronomy

Apr. 07, 2013 Rise Set
Actual Time 6:24 AM EDT 7:23 PM EDT
Civil Twilight 5:55 AM EDT 7:51 PM EDT
Nautical Twilight 5:22 AM EDT 8:25 PM EDT
Astronomical Twilight 4:47 AM EDT 9:00 PM EDT
Moon 4:42 AM EDT (4/7) 4:51 PM EDT (4/7)
Length of Visible Light 13h 55m
Length of Day
12h 59m
Waning Crescent, 8% of the Moon is Illuminated
Apr 7
Waning Crescent
Apr 10
New
Apr 18
First Quarter
Apr 25
Full
May 2
Last Quarter

Hourly Weather History & Observations

Time (EDT) Temp. Windchill Dew Point Humidity Pressure Visibility Wind Dir Wind Speed Gust Speed Precip Events Conditions
12:53 AM 30.0 °F - 21.9 °F 72% 30.32 in 10.0 mi Calm Calm - N/A   Clear
1:53 AM 30.0 °F - 23.0 °F 75% 30.31 in 10.0 mi Calm Calm - N/A   Clear
2:53 AM 28.0 °F - 23.0 °F 81% 30.29 in 10.0 mi Calm Calm - N/A   Clear
3:53 AM 28.9 °F - 23.0 °F 78% 30.28 in 10.0 mi Calm Calm - N/A   Clear
4:53 AM 28.0 °F - 24.1 °F 85% 30.29 in 10.0 mi Calm Calm - N/A   Clear
5:53 AM 30.0 °F - 25.0 °F 82% 30.29 in 10.0 mi Calm Calm - N/A   Clear
6:53 AM 30.0 °F - 26.1 °F 85% 30.30 in 10.0 mi Calm Calm - N/A   Clear
7:53 AM 36.0 °F 33.3 °F 30.9 °F 82% 30.31 in 10.0 mi SSE 3.5 mph - N/A   Overcast
8:53 AM 42.1 °F 37.1 °F 32.0 °F 67% 30.29 in 10.0 mi South 8.1 mph - N/A   Scattered Clouds
9:53 AM 46.0 °F 39.0 °F 28.0 °F 50% 30.28 in 10.0 mi South 17.3 mph 26.5 mph N/A   Partly Cloudy
10:53 AM 50.0 °F - 30.0 °F 46% 30.25 in 10.0 mi South 18.4 mph 26.5 mph N/A   Partly Cloudy
11:53 AM 51.1 °F - 30.9 °F 46% 30.24 in 10.0 mi SSW 19.6 mph 29.9 mph N/A   Partly Cloudy
12:53 PM 52.0 °F - 33.1 °F 49% 30.19 in 10.0 mi South 19.6 mph 31.1 mph N/A   Clear
1:53 PM 53.1 °F - 33.1 °F 47% 30.17 in 10.0 mi SSW 21.9 mph 31.1 mph N/A   Clear
2:53 PM 53.1 °F - 34.0 °F 48% 30.13 in 10.0 mi South 16.1 mph 31.1 mph N/A   Clear
3:53 PM 53.1 °F - 33.1 °F 47% 30.10 in 10.0 mi SSW 18.4 mph 27.6 mph N/A   Clear
4:53 PM 52.0 °F - 35.1 °F 53% 30.06 in 10.0 mi South 23.0 mph 32.2 mph N/A   Clear
5:53 PM 51.1 °F - 36.0 °F 56% 30.06 in 10.0 mi South 21.9 mph 32.2 mph N/A   Clear
6:53 PM 50.0 °F - 37.0 °F 61% 30.06 in 10.0 mi South 10.4 mph - N/A   Mostly Cloudy
7:10 PM 48.2 °F - 39.2 °F 71% 30.04 in 10.0 mi South 16.1 mph 23.0 mph 0.00 in Rain Light Rain
7:53 PM 48.0 °F - 39.9 °F 74% 30.06 in 10.0 mi SSW 10.4 mph - 0.00 in   Mostly Cloudy
8:53 PM 46.9 °F - 39.9 °F 77% 30.06 in 10.0 mi South 12.7 mph - N/A   Partly Cloudy
9:53 PM 46.9 °F - 41.0 °F 80% 30.04 in 10.0 mi South 9.2 mph - N/A   Scattered Clouds
10:53 PM 46.0 °F 42.5 °F 41.0 °F 83% 30.03 in 10.0 mi South 6.9 mph - N/A   Partly Cloudy
11:53 PM 45.0 °F 42.6 °F 41.0 °F 86% 30.03 in 10.0 mi SE 4.6 mph - N/A   Clear